Weather in Bad Kissingen

Germany     50°11′11″N   10°04′38″E
temp.,
°C
wind,
m/s
gust,
m/s
humid.,
%
clouds,
%
prec.,
mm/h
press.,
hPa
HPBL,
m
18 april, sun
sun1823:00+4nne119298 0.0 102219
02:00+4nnw1192100 0.0 102122
05:00+4nnw1196100 0.4 102139
08:00+4n1197100 1.6 102161
11:00+6n129289 0.2 1021360
14:00+9nnw0173100 0.7 1020789
17:00+9w128292 0.9 1019463
20:00+7wnw239186 1.2 101977
19 april, mon
mon1923:00+6wnw239495 0.0 102086
02:00+5wnw1196100 0.0 102033
05:00+6nw0198100 1.3 101933
08:00+6n0198100 2.1 101949
11:00+7ese1292100 0.4 1020301
14:00+10s127393 1.1 1019818
17:00+10ssw1177100 1.4 1018607
20:00+7ne118998 2.4 101810
20 april, tue
tue2023:00+7nne119088 0.1 101924
02:00+4n229527 0.1 101925
05:00+4nne119475 0.0 101812
08:00+6nnw018858 0.0 101867
11:00+10ene117397 0.1 1017569
14:00+13nne2264100 0.9 10161222
17:00+10wnw118051 1.6 1016250
20:00+8n118810 2.1 101610
21 april, wed
wed2123:00+6n119325 0.2 101710
02:00+5nw11944 0.2 101710
05:00+4nw11940 0.0 101712
08:00+7nw12870 0.0 101783
11:00+12nw23554 0.0 10171267
14:00+14nnw45415 0.0 10161999
17:00+14nnw454543 0.0 10161934
20:00+8nnw227316 0.0 101726
22 april, thu
thu2223:00+5nnw22945 0.0 102035
02:00+3nw229589 0.0 102134
05:00+1nw229414 0.0 102246
08:00+2nw247443 0.0 1023377
11:00+8nnw344551 0.0 10241089
14:00+11nnw45385 0.0 10231642
17:00+11nnw464131 0.0 10231798
20:00+6nnw23665 0.0 102564